Time,TemperatureF,DewpointF,PressureIn,WindDirection,WindDirectionDegrees,WindSpeedMPH,WindSpeedGustMPH,Humidity,HourlyPrecipIn,Conditions,Clouds,dailyrainin,SoftwareType,DateUTC
2013-05-22 00:01:00,50.0,45.4,29.84,SSE,152,8.0,12.0,84,0.00,,---,0.00,VWS V14.01,2013-05-22 05:01:00,
2013-05-22 00:06:00,49.9,45.3,29.84,SSE,153,6.0,9.0,84,0.00,,---,0.00,VWS V14.01,2013-05-22 05:06:00,
2013-05-22 00:11:00,49.7,45.1,29.84,South,175,3.0,12.0,84,0.00,,---,0.00,VWS V14.01,2013-05-22 05:11:00,
2013-05-22 00:16:00,49.5,44.9,29.84,SSE,149,5.0,12.0,84,0.00,,---,0.00,VWS V14.01,2013-05-22 05:16:00,
2013-05-22 00:21:00,49.4,45.1,29.84,SE,139,4.0,12.0,85,0.00,,---,0.00,VWS V14.01,2013-05-22 05:21:00,
2013-05-22 00:26:00,49.3,45.0,29.85,South,169,2.0,12.0,85,0.00,,---,0.00,VWS V14.01,2013-05-22 05:26:00,
2013-05-22 00:31:00,49.2,44.9,29.85,SSW,200,5.0,12.0,85,0.00,,---,0.00,VWS V14.01,2013-05-22 05:31:00,
2013-05-22 00:36:00,49.1,44.8,29.85,SSW,193,2.0,6.0,85,0.00,,---,0.00,VWS V14.01,2013-05-22 05:36:00,
2013-05-22 00:41:00,49.0,45.0,29.85,SE,142,5.0,13.0,86,0.00,,---,0.00,VWS V14.01,2013-05-22 05:41:00,
2013-05-22 00:46:00,49.0,45.0,29.86,South,172,4.0,13.0,86,0.00,,---,0.00,VWS V14.01,2013-05-22 05:46:00,
2013-05-22 00:51:00,49.0,45.0,29.86,SSE,165,3.0,13.0,86,0.00,,---,0.00,VWS V14.01,2013-05-22 05:51:00,
2013-05-22 00:56:00,48.9,44.9,29.86,SSE,165,2.0,13.0,86,0.00,,---,0.00,VWS V14.01,2013-05-22 05:56:00,
2013-05-22 01:01:00,48.8,44.8,29.86,South,169,7.0,13.0,86,0.00,,---,0.00,VWS V14.01,2013-05-22 06:01:00,
2013-05-22 01:06:00,48.7,45.0,29.86,South,175,4.0,6.0,87,0.00,,---,0.00,VWS V14.01,2013-05-22 06:06:00,
2013-05-22 01:11:00,48.6,44.9,29.86,SSW,201,3.0,6.0,87,0.00,,---,0.00,VWS V14.01,2013-05-22 06:11:00,
2013-05-22 01:16:00,48.5,44.8,29.86,SW,228,4.0,11.0,87,0.00,,---,0.00,VWS V14.01,2013-05-22 06:16:00,
2013-05-22 01:21:00,48.4,44.7,29.86,SSW,207,6.0,11.0,87,0.00,,---,0.00,VWS V14.01,2013-05-22 06:21:00,
2013-05-22 01:26:00,48.4,44.7,29.86,SE,131,6.0,11.0,87,0.00,,---,0.00,VWS V14.01,2013-05-22 06:26:00,
2013-05-22 01:31:00,48.4,44.7,29.86,SSW,200,4.0,11.0,87,0.00,,---,0.00,VWS V14.01,2013-05-22 06:31:00,
2013-05-22 01:36:00,48.3,44.3,29.86,SSE,160,2.0,6.0,86,0.00,,---,0.00,VWS V14.01,2013-05-22 06:36:00,
2013-05-22 01:41:00,48.2,44.2,29.86,South,170,1.0,7.0,86,0.00,,---,0.00,VWS V14.01,2013-05-22 06:41:00,
2013-05-22 01:46:00,48.1,44.1,29.86,South,182,5.0,8.0,86,0.00,,---,0.00,VWS V14.01,2013-05-22 06:46:00,
2013-05-22 01:51:00,48.1,44.1,29.86,SSE,149,2.0,8.0,86,0.00,,---,0.00,VWS V14.01,2013-05-22 06:51:00,
2013-05-22 01:56:00,48.0,44.0,29.87,SSE,159,3.0,8.0,86,0.00,,---,0.00,VWS V14.01,2013-05-22 06:56:00,
2013-05-22 02:01:00,47.9,43.9,29.87,SE,142,5.0,9.0,86,0.00,,---,0.00,VWS V14.01,2013-05-22 07:01:00,
2013-05-22 02:06:00,47.9,43.9,29.87,South,172,4.0,9.0,86,0.00,,---,0.00,VWS V14.01,2013-05-22 07:06:00,
2013-05-22 02:11:00,47.8,43.8,29.87,SSE,165,3.0,9.0,86,0.00,,---,0.00,VWS V14.01,2013-05-22 07:11:00,
2013-05-22 02:16:00,47.7,43.7,29.87,SE,142,2.0,9.0,86,0.00,,---,0.00,VWS V14.01,2013-05-22 07:16:00,
2013-05-22 02:21:00,47.6,43.6,29.88,South,176,1.0,9.0,86,0.00,,---,0.00,VWS V14.01,2013-05-22 07:21:00,
2013-05-22 02:26:00,47.6,43.6,29.88,SE,146,2.0,9.0,86,0.00,,---,0.00,VWS V14.01,2013-05-22 07:26:00,
2013-05-22 02:31:00,47.5,43.8,29.88,SSE,165,3.0,9.0,87,0.00,,---,0.00,VWS V14.01,2013-05-22 07:31:00,
2013-05-22 02:36:00,47.4,43.7,29.88,SE,141,3.0,6.0,87,0.00,,---,0.00,VWS V14.01,2013-05-22 07:36:00,
2013-05-22 02:41:00,47.3,43.6,29.88,SSE,165,3.0,8.0,87,0.00,,---,0.00,VWS V14.01,2013-05-22 07:41:00,
2013-05-22 02:46:00,47.2,43.5,29.88,SSE,151,2.0,9.0,87,0.00,,---,0.00,VWS V14.01,2013-05-22 07:46:00,
2013-05-22 02:51:00,47.2,43.5,29.88,South,180,2.0,9.0,87,0.00,,---,0.00,VWS V14.01,2013-05-22 07:51:00,
2013-05-22 02:56:00,47.2,43.5,29.88,SSE,156,4.0,11.0,87,0.00,,---,0.00,VWS V14.01,2013-05-22 07:56:00,
2013-05-22 03:01:00,47.3,43.6,29.88,South,172,1.0,11.0,87,0.00,,---,0.00,VWS V14.01,2013-05-22 08:01:00,
2013-05-22 03:06:00,47.3,43.6,29.89,South,172,3.0,9.0,87,0.00,,---,0.00,VWS V14.01,2013-05-22 08:06:00,
2013-05-22 03:10:00,47.2,43.5,29.89,SSE,168,7.0,9.0,87,0.00,,---,0.00,VWS V14.01,2013-05-22 08:10:00,
2013-05-22 03:15:00,47.3,43.6,29.89,South,180,4.0,10.0,87,0.00,,---,0.00,VWS V14.01,2013-05-22 08:15:00,
2013-05-22 03:20:00,47.3,43.6,29.89,SSE,157,3.0,10.0,87,0.00,,---,0.00,VWS V14.01,2013-05-22 08:20:00,
2013-05-22 03:25:00,47.4,43.7,29.89,SSE,156,3.0,10.0,87,0.00,,---,0.00,VWS V14.01,2013-05-22 08:25:00,
2013-05-22 03:30:00,47.5,43.8,29.89,South,189,4.0,10.0,87,0.00,,---,0.00,VWS V14.01,2013-05-22 08:30:00,
2013-05-22 03:35:00,47.5,43.8,29.89,SSW,207,6.0,8.0,87,0.00,,---,0.00,VWS V14.01,2013-05-22 08:35:00,
2013-05-22 03:40:00,47.5,43.8,29.89,SSE,154,2.0,8.0,87,0.00,,---,0.00,VWS V14.01,2013-05-22 08:40:00,
2013-05-22 03:45:00,47.6,43.9,29.89,South,170,4.0,8.0,87,0.00,,---,0.00,VWS V14.01,2013-05-22 08:45:00,
2013-05-22 03:50:00,47.6,43.9,29.89,SE,146,2.0,8.0,87,0.00,,---,0.00,VWS V14.01,2013-05-22 08:50:00,
2013-05-22 03:55:00,47.6,43.9,29.89,SE,146,3.0,10.0,87,0.00,,---,0.00,VWS V14.01,2013-05-22 08:55:00,
2013-05-22 04:00:00,47.6,43.9,29.89,SSE,156,5.0,10.0,87,0.00,,---,0.00,VWS V14.01,2013-05-22 09:00:00,
2013-05-22 04:05:00,47.6,43.9,29.89,SSE,149,6.0,9.0,87,0.00,,---,0.00,VWS V14.01,2013-05-22 09:05:00,
2013-05-22 04:10:00,47.6,43.9,29.89,SSE,165,6.0,11.0,87,0.00,,---,0.00,VWS V14.01,2013-05-22 09:10:00,
2013-05-22 04:15:00,47.6,43.9,29.89,SE,146,3.0,12.0,87,0.00,,---,0.00,VWS V14.01,2013-05-22 09:15:00,
2013-05-22 04:20:00,47.6,43.9,29.89,SE,143,7.0,12.0,87,0.00,,---,0.00,VWS V14.01,2013-05-22 09:20:00,
2013-05-22 04:25:00,47.5,43.8,29.89,SE,140,3.0,12.0,87,0.00,,---,0.00,VWS V14.01,2013-05-22 09:25:00,
2013-05-22 04:30:00,47.5,43.8,29.89,SSE,149,8.0,12.0,87,0.00,,---,0.00,VWS V14.01,2013-05-22 09:30:00,
2013-05-22 04:35:00,47.5,44.1,29.89,SE,140,2.0,6.0,88,0.00,,---,0.00,VWS V14.01,2013-05-22 09:35:00,
2013-05-22 04:40:00,47.6,44.2,29.89,South,172,3.0,6.0,88,0.00,,---,0.00,VWS V14.01,2013-05-22 09:40:00,
2013-05-22 04:45:00,47.6,44.2,29.89,SSE,154,2.0,8.0,88,0.00,,---,0.00,VWS V14.01,2013-05-22 09:45:00,
2013-05-22 04:50:00,47.6,44.2,29.89,South,182,6.0,8.0,88,0.00,,---,0.00,VWS V14.01,2013-05-22 09:50:00,
2013-05-22 04:55:00,47.6,44.2,29.89,SE,142,3.0,8.0,88,0.00,,---,0.00,VWS V14.01,2013-05-22 09:55:00,
2013-05-22 05:00:00,47.6,44.2,29.88,SSE,155,7.0,8.0,88,0.00,,---,0.00,VWS V14.01,2013-05-22 10:00:00,
2013-05-22 05:05:00,47.6,44.2,29.88,SSE,148,3.0,6.0,88,0.00,,---,0.00,VWS V14.01,2013-05-22 10:05:00,
2013-05-22 05:10:00,47.6,44.2,29.88,South,175,4.0,10.0,88,0.00,,---,0.00,VWS V14.01,2013-05-22 10:10:00,
2013-05-22 05:15:00,47.7,44.3,29.89,South,170,4.0,11.0,88,0.00,,---,0.00,VWS V14.01,2013-05-22 10:15:00,
2013-05-22 05:20:00,47.7,44.6,29.89,SSE,153,6.0,11.0,89,0.00,,---,0.00,VWS V14.01,2013-05-22 10:20:00,
2013-05-22 05:25:00,47.6,44.5,29.89,SE,145,2.0,11.0,89,0.00,,---,0.00,VWS V14.01,2013-05-22 10:25:00,
2013-05-22 05:30:00,47.5,44.4,29.89,SE,145,7.0,11.0,89,0.00,,---,0.00,VWS V14.01,2013-05-22 10:30:00,
2013-05-22 05:35:00,47.5,44.4,29.89,SE,124,3.0,9.0,89,0.00,,---,0.00,VWS V14.01,2013-05-22 10:35:00,
2013-05-22 05:40:00,47.5,44.4,29.89,SSE,156,2.0,9.0,89,0.00,,---,0.00,VWS V14.01,2013-05-22 10:40:00,
2013-05-22 05:45:00,47.5,44.4,29.89,SSE,148,7.0,9.0,89,0.00,,---,0.00,VWS V14.01,2013-05-22 10:45:00,
2013-05-22 05:50:00,47.5,44.4,29.89,SE,145,2.0,9.0,89,0.00,,---,0.00,VWS V14.01,2013-05-22 10:50:00,
2013-05-22 05:55:00,47.6,44.2,29.90,ESE,120,8.0,9.0,88,0.00,,---,0.00,VWS V14.01,2013-05-22 10:55:00,
2013-05-22 06:00:00,47.6,44.5,29.90,SSE,150,5.0,11.0,89,0.00,,---,0.00,VWS V14.01,2013-05-22 11:00:00,
2013-05-22 06:05:00,47.7,44.6,29.90,SSE,153,8.0,8.0,89,0.00,,---,0.00,VWS V14.01,2013-05-22 11:05:00,
2013-05-22 06:10:00,47.7,44.6,29.90,SE,125,5.0,12.0,89,0.00,,---,0.00,VWS V14.01,2013-05-22 11:10:00,
2013-05-22 06:15:00,47.7,44.6,29.90,SE,137,8.0,14.0,89,0.00,,---,0.00,VWS V14.01,2013-05-22 11:15:00,
2013-05-22 06:20:00,47.7,44.6,29.90,SSE,154,9.0,14.0,89,0.00,,---,0.00,VWS V14.01,2013-05-22 11:20:00,
2013-05-22 06:25:00,47.7,44.6,29.90,SSW,202,5.0,14.0,89,0.00,,---,0.00,VWS V14.01,2013-05-22 11:25:00,
2013-05-22 06:30:00,47.7,44.6,29.90,SSE,151,6.0,14.0,89,0.00,,---,0.00,VWS V14.01,2013-05-22 11:30:00,
2013-05-22 06:35:00,47.7,44.6,29.90,SSE,165,6.0,9.0,89,0.00,,---,0.00,VWS V14.01,2013-05-22 11:35:00,
2013-05-22 06:40:00,47.7,44.6,29.90,SSE,156,3.0,10.0,89,0.00,,---,0.00,VWS V14.01,2013-05-22 11:40:00,
2013-05-22 06:45:00,47.8,44.7,29.90,South,172,6.0,11.0,89,0.00,,---,0.00,VWS V14.01,2013-05-22 11:45:00,
2013-05-22 06:50:00,47.8,44.4,29.90,SSE,155,3.0,11.0,88,0.00,,---,0.00,VWS V14.01,2013-05-22 11:50:00,
2013-05-22 06:55:00,48.0,44.6,29.90,SE,130,5.0,17.0,88,0.00,,---,0.00,VWS V14.01,2013-05-22 11:55:00,
2013-05-22 07:00:00,48.0,44.3,29.90,SSE,156,8.0,17.0,87,0.00,,---,0.00,VWS V14.01,2013-05-22 12:00:00,
2013-05-22 07:05:00,48.1,44.4,29.90,SE,135,4.0,7.0,87,0.00,,---,0.00,VWS V14.01,2013-05-22 12:05:00,
2013-05-22 07:10:00,48.2,44.5,29.90,SSW,207,6.0,12.0,87,0.00,,---,0.00,VWS V14.01,2013-05-22 12:10:00,
2013-05-22 07:15:00,48.3,44.6,29.91,South,190,3.0,13.0,87,0.00,,---,0.00,VWS V14.01,2013-05-22 12:15:00,
2013-05-22 07:20:00,48.3,44.6,29.91,SSW,193,3.0,13.0,87,0.00,,---,0.00,VWS V14.01,2013-05-22 12:20:00,
2013-05-22 07:25:00,48.4,44.7,29.91,SSE,159,7.0,13.0,87,0.00,,---,0.00,VWS V14.01,2013-05-22 12:25:00,
2013-05-22 07:30:00,48.4,44.7,29.90,SSE,162,6.0,13.0,87,0.00,,---,0.00,VWS V14.01,2013-05-22 12:30:00,
2013-05-22 07:35:00,48.4,44.7,29.90,SE,146,5.0,10.0,87,0.00,,---,0.00,VWS V14.01,2013-05-22 12:35:00,
2013-05-22 07:40:00,48.4,44.7,29.91,SE,135,4.0,11.0,87,0.00,,---,0.00,VWS V14.01,2013-05-22 12:40:00,
2013-05-22 07:45:00,48.4,44.7,29.91,SE,134,5.0,12.0,87,0.00,,---,0.00,VWS V14.01,2013-05-22 12:45:00,
2013-05-22 07:50:00,48.5,44.8,29.91,SSE,157,9.0,14.0,87,0.00,,---,0.00,VWS V14.01,2013-05-22 12:50:00,
2013-05-22 07:55:00,48.8,45.1,29.91,SSE,149,7.0,14.0,87,0.00,,---,0.00,VWS V14.01,2013-05-22 12:55:00,
2013-05-22 08:00:00,49.3,45.3,29.91,SSE,148,7.0,14.0,86,0.00,,---,0.00,VWS V14.01,2013-05-22 13:00:00,
2013-05-22 08:05:00,49.8,45.5,29.91,SE,144,2.0,14.0,85,0.00,,---,0.00,VWS V14.01,2013-05-22 13:05:00,
2013-05-22 08:10:00,49.9,45.3,29.92,SE,130,9.0,14.0,84,0.00,,---,0.00,VWS V14.01,2013-05-22 13:10:00,
2013-05-22 08:15:00,50.1,45.5,29.92,SSE,157,4.0,14.0,84,0.00,,---,0.00,VWS V14.01,2013-05-22 13:15:00,
2013-05-22 08:20:00,50.1,45.2,29.92,SSE,153,9.0,14.0,83,0.00,,---,0.00,VWS V14.01,2013-05-22 13:20:00,
2013-05-22 08:25:00,50.0,45.0,29.92,SW,217,7.0,18.0,83,0.00,,---,0.00,VWS V14.01,2013-05-22 13:25:00,
2013-05-22 08:30:00,50.1,45.2,29.92,SE,130,7.0,18.0,83,0.00,,---,0.00,VWS V14.01,2013-05-22 13:30:00,
2013-05-22 08:35:00,50.2,45.2,29.92,SSW,201,7.0,11.0,83,0.00,,---,0.00,VWS V14.01,2013-05-22 13:35:00,
2013-05-22 08:40:00,50.4,45.4,29.92,East,80,3.0,13.0,83,0.00,,---,0.00,VWS V14.01,2013-05-22 13:40:00,
2013-05-22 08:45:00,50.6,45.3,29.92,SE,130,11.0,13.0,82,0.00,,---,0.00,VWS V14.01,2013-05-22 13:45:00,
2013-05-22 08:50:00,50.8,45.5,29.92,SSE,153,12.0,13.0,82,0.00,,---,0.00,VWS V14.01,2013-05-22 13:50:00,
2013-05-22 08:55:00,50.9,45.6,29.93,South,185,9.0,15.0,82,0.00,,---,0.00,VWS V14.01,2013-05-22 13:55:00,
2013-05-22 09:00:00,51.0,45.4,29.93,SSE,153,3.0,15.0,81,0.00,,---,0.00,VWS V14.01,2013-05-22 14:00:00,
2013-05-22 09:05:00,51.3,45.7,29.93,SSE,148,9.0,19.0,81,0.00,,---,0.00,VWS V14.01,2013-05-22 14:05:00,
2013-05-22 09:10:00,51.5,45.9,29.93,SSE,162,4.0,19.0,81,0.00,,---,0.00,VWS V14.01,2013-05-22 14:10:00,
2013-05-22 09:15:00,51.7,46.1,29.93,SSE,150,6.0,19.0,81,0.00,,---,0.00,VWS V14.01,2013-05-22 14:15:00,
2013-05-22 09:20:00,51.8,46.2,29.93,South,170,6.0,19.0,81,0.00,,---,0.00,VWS V14.01,2013-05-22 14:20:00,
2013-05-22 09:25:00,51.7,45.7,29.94,South,182,3.0,19.0,80,0.00,,---,0.00,VWS V14.01,2013-05-22 14:25:00,
2013-05-22 09:30:00,51.8,46.2,29.94,SSW,200,4.0,19.0,81,0.00,,---,0.00,VWS V14.01,2013-05-22 14:30:00,
2013-05-22 09:35:00,51.9,46.3,29.93,SSE,156,3.0,11.0,81,0.00,,---,0.00,VWS V14.01,2013-05-22 14:35:00,
2013-05-22 09:40:00,52.1,45.8,29.94,SE,146,4.0,11.0,79,0.00,,---,0.00,VWS V14.01,2013-05-22 14:40:00,
2013-05-22 09:45:00,52.2,45.9,29.94,SSE,160,3.0,14.0,79,0.00,,---,0.00,VWS V14.01,2013-05-22 14:45:00,
2013-05-22 09:50:00,52.2,45.9,29.94,SSE,162,6.0,14.0,79,0.00,,---,0.00,VWS V14.01,2013-05-22 14:50:00,
2013-05-22 09:55:00,52.4,46.1,29.94,South,172,4.0,18.0,79,0.00,,---,0.00,VWS V14.01,2013-05-22 14:55:00,
2013-05-22 10:00:00,52.3,46.3,29.94,South,183,4.0,18.0,80,0.00,,---,0.00,VWS V14.01,2013-05-22 15:00:00,
2013-05-22 10:05:00,52.3,46.0,29.94,South,175,3.0,9.0,79,0.00,,---,0.00,VWS V14.01,2013-05-22 15:05:00,
2013-05-22 10:10:00,52.2,45.9,29.94,SE,125,12.0,14.0,79,0.00,,---,0.00,VWS V14.01,2013-05-22 15:10:00,
2013-05-22 10:15:00,52.4,46.1,29.94,SSE,152,8.0,15.0,79,0.00,,---,0.00,VWS V14.01,2013-05-22 15:15:00,
2013-05-22 10:20:00,52.5,46.2,29.94,SE,140,13.0,15.0,79,0.00,,---,0.00,VWS V14.01,2013-05-22 15:20:00,
2013-05-22 10:25:00,52.4,46.1,29.94,SSE,165,6.0,15.0,79,0.00,,---,0.00,VWS V14.01,2013-05-22 15:25:00,
2013-05-22 10:30:00,52.5,46.2,29.94,SSE,151,12.0,15.0,79,0.00,,---,0.00,VWS V14.01,2013-05-22 15:30:00,
2013-05-22 10:35:00,52.5,46.2,29.94,SE,145,4.0,16.0,79,0.00,,---,0.00,VWS V14.01,2013-05-22 15:35:00,
2013-05-22 10:40:00,52.8,46.1,29.94,South,169,3.0,16.0,78,0.00,,---,0.00,VWS V14.01,2013-05-22 15:40:00,
2013-05-22 10:45:00,53.2,46.5,29.94,SE,140,11.0,16.0,78,0.00,,---,0.00,VWS V14.01,2013-05-22 15:45:00,
2013-05-22 10:50:00,53.3,46.6,29.95,SE,137,9.0,16.0,78,0.00,,---,0.00,VWS V14.01,2013-05-22 15:50:00,
2013-05-22 10:55:00,53.3,46.6,29.95,SE,139,2.0,16.0,78,0.00,,---,0.00,VWS V14.01,2013-05-22 15:55:00,
2013-05-22 11:00:00,53.8,47.5,29.95,SE,137,3.0,16.0,79,0.00,,---,0.00,VWS V14.01,2013-05-22 16:00:00,
2013-05-22 11:05:00,53.8,46.8,29.95,South,171,8.0,12.0,77,0.00,,---,0.00,VWS V14.01,2013-05-22 16:05:00,
2013-05-22 11:10:00,54.0,47.3,29.95,South,185,8.0,13.0,78,0.00,,---,0.00,VWS V14.01,2013-05-22 16:10:00,
2013-05-22 11:15:00,54.3,47.2,29.95,SW,221,4.0,13.0,77,0.00,,---,0.00,VWS V14.01,2013-05-22 16:15:00,
2013-05-22 11:20:00,54.4,47.0,29.95,SSE,168,7.0,13.0,76,0.00,,---,0.00,VWS V14.01,2013-05-22 16:20:00,
2013-05-22 11:25:00,54.5,47.1,29.95,SE,142,9.0,13.0,76,0.00,,---,0.00,VWS V14.01,2013-05-22 16:25:00,
2013-05-22 11:30:00,54.6,47.5,29.95,SE,142,6.0,13.0,77,0.00,,---,0.00,VWS V14.01,2013-05-22 16:30:00,
2013-05-22 11:35:00,54.9,47.5,29.95,SE,142,5.0,12.0,76,0.00,,---,0.00,VWS V14.01,2013-05-22 16:35:00,
2013-05-22 11:40:00,55.5,47.7,29.95,South,180,9.0,13.0,75,0.00,,---,0.00,VWS V14.01,2013-05-22 16:40:00,
2013-05-22 11:45:00,55.9,48.5,29.95,SSE,165,3.0,13.0,76,0.00,,---,0.00,VWS V14.01,2013-05-22 16:45:00,
2013-05-22 11:50:00,55.9,48.1,29.95,ESE,113,5.0,13.0,75,0.00,,---,0.00,VWS V14.01,2013-05-22 16:50:00,
2013-05-22 11:55:00,55.5,48.1,29.95,East,96,5.0,16.0,76,0.00,,---,0.00,VWS V14.01,2013-05-22 16:55:00,
2013-05-22 12:00:00,55.6,48.2,29.95,SW,220,6.0,16.0,76,0.00,,---,0.00,VWS V14.01,2013-05-22 17:00:00,
2013-05-22 12:05:00,56.1,48.3,29.95,SE,146,3.0,10.0,75,0.00,,---,0.00,VWS V14.01,2013-05-22 17:05:00,
2013-05-22 12:10:00,56.2,48.0,29.95,South,176,3.0,12.0,74,0.00,,---,0.00,VWS V14.01,2013-05-22 17:10:00,
2013-05-22 12:15:00,56.4,48.2,29.95,SE,134,3.0,12.0,74,0.00,,---,0.00,VWS V14.01,2013-05-22 17:15:00,
2013-05-22 12:20:00,56.5,48.0,29.95,SE,141,2.0,12.0,73,0.00,,---,0.00,VWS V14.01,2013-05-22 17:20:00,
2013-05-22 12:25:00,56.8,48.2,29.96,SSW,199,4.0,13.0,73,0.00,,---,0.00,VWS V14.01,2013-05-22 17:25:00,
2013-05-22 12:30:00,56.7,47.8,29.96,South,184,5.0,14.0,72,0.00,,---,0.00,VWS V14.01,2013-05-22 17:30:00,
2013-05-22 12:35:00,57.2,48.3,29.96,SSW,206,4.0,13.0,72,0.00,,---,0.00,VWS V14.01,2013-05-22 17:35:00,
2013-05-22 12:40:00,57.4,48.5,29.96,SSE,148,7.0,13.0,72,0.00,,---,0.00,VWS V14.01,2013-05-22 17:40:00,
2013-05-22 12:45:00,57.5,48.6,29.95,South,186,5.0,13.0,72,0.00,,---,0.00,VWS V14.01,2013-05-22 17:45:00,
2013-05-22 12:50:00,57.6,48.3,29.96,SSE,151,5.0,13.0,71,0.00,,---,0.00,VWS V14.01,2013-05-22 17:50:00,
2013-05-22 12:55:00,57.5,48.6,29.96,South,170,3.0,13.0,72,0.00,,---,0.00,VWS V14.01,2013-05-22 17:55:00,
2013-05-22 13:00:00,57.8,48.8,29.95,SSE,168,5.0,14.0,72,0.00,,---,0.00,VWS V14.01,2013-05-22 18:00:00,
2013-05-22 13:05:00,57.7,48.4,29.95,WSW,246,6.0,9.0,71,0.00,,---,0.00,VWS V14.01,2013-05-22 18:05:00,
2013-05-22 13:10:00,58.0,49.0,29.95,SW,218,5.0,13.0,72,0.00,,---,0.00,VWS V14.01,2013-05-22 18:10:00,
2013-05-22 13:15:00,58.3,48.6,29.95,South,176,6.0,13.0,70,0.00,,---,0.00,VWS V14.01,2013-05-22 18:15:00,
2013-05-22 13:20:00,58.3,49.0,29.95,South,170,6.0,15.0,71,0.00,,---,0.00,VWS V14.01,2013-05-22 18:20:00,
2013-05-22 13:25:00,58.6,49.2,29.95,WSW,238,5.0,15.0,71,0.00,,---,0.00,VWS V14.01,2013-05-22 18:25:00,
2013-05-22 13:30:00,59.2,49.4,29.95,South,187,8.0,15.0,70,0.00,,---,0.00,VWS V14.01,2013-05-22 18:30:00,
2013-05-22 13:35:00,59.3,49.1,29.95,SW,221,5.0,12.0,69,0.00,,---,0.00,VWS V14.01,2013-05-22 18:35:00,
2013-05-22 13:40:00,59.7,49.5,29.95,WSW,256,7.0,12.0,69,0.00,,---,0.00,VWS V14.01,2013-05-22 18:40:00,
2013-05-22 13:45:00,60.0,49.0,29.95,South,188,7.0,14.0,67,0.00,,---,0.00,VWS V14.01,2013-05-22 18:45:00,
2013-05-22 13:50:00,59.9,48.9,29.94,SE,133,10.0,14.0,67,0.00,,---,0.00,VWS V14.01,2013-05-22 18:50:00,
2013-05-22 13:55:00,60.2,49.6,29.94,SSE,149,2.0,14.0,68,0.00,,---,0.00,VWS V14.01,2013-05-22 18:55:00,
2013-05-22 14:00:00,60.8,50.2,29.94,SSE,162,5.0,14.0,68,0.00,,---,0.00,VWS V14.01,2013-05-22 19:00:00,
2013-05-22 14:05:00,61.1,50.1,29.95,SSE,152,6.0,7.0,67,0.00,,---,0.00,VWS V14.01,2013-05-22 19:05:00,
2013-05-22 14:10:00,60.9,49.5,29.95,SSE,148,3.0,10.0,66,0.00,,---,0.00,VWS V14.01,2013-05-22 19:10:00,
2013-05-22 14:15:00,61.4,50.0,29.94,SSE,156,5.0,10.0,66,0.00,,---,0.00,VWS V14.01,2013-05-22 19:15:00,
2013-05-22 14:20:00,61.5,50.0,29.94,SSE,156,5.0,10.0,66,0.00,,---,0.00,VWS V14.01,2013-05-22 19:20:00,
2013-05-22 14:25:00,61.6,50.5,29.94,South,179,2.0,13.0,67,0.00,,---,0.00,VWS V14.01,2013-05-22 19:25:00,
2013-05-22 14:30:00,61.9,50.4,29.94,South,182,4.0,13.0,66,0.00,,---,0.00,VWS V14.01,2013-05-22 19:30:00,
2013-05-22 14:35:00,62.2,49.9,29.94,South,175,4.0,6.0,64,0.00,,---,0.00,VWS V14.01,2013-05-22 19:35:00,
2013-05-22 14:40:00,61.9,50.0,29.94,SSE,159,5.0,11.0,65,0.00,,---,0.00,VWS V14.01,2013-05-22 19:40:00,
2013-05-22 14:45:00,61.6,49.7,29.94,SSE,154,3.0,12.0,65,0.00,,---,0.00,VWS V14.01,2013-05-22 19:45:00,
2013-05-22 14:50:00,62.0,49.7,29.94,South,173,5.0,12.0,64,0.00,,---,0.00,VWS V14.01,2013-05-22 19:50:00,
2013-05-22 14:55:00,62.4,50.5,29.94,SSW,204,5.0,13.0,65,0.00,,---,0.00,VWS V14.01,2013-05-22 19:55:00,
2013-05-22 15:00:00,62.1,49.8,29.94,South,172,4.0,13.0,64,0.00,,---,0.00,VWS V14.01,2013-05-22 20:00:00,
2013-05-22 15:05:00,61.6,49.7,29.94,South,173,5.0,12.0,65,0.00,,---,0.00,VWS V14.01,2013-05-22 20:05:00,
2013-05-22 15:10:00,61.8,49.9,29.94,South,187,2.0,12.0,65,0.00,,---,0.00,VWS V14.01,2013-05-22 20:10:00,
2013-05-22 15:15:00,61.7,49.4,29.94,SSW,203,6.0,13.0,64,0.00,,---,0.00,VWS V14.01,2013-05-22 20:15:00,
2013-05-22 15:20:00,61.8,49.9,29.94,SSE,163,6.0,13.0,65,0.00,,---,0.00,VWS V14.01,2013-05-22 20:20:00,
2013-05-22 15:25:00,61.3,49.0,29.94,South,180,12.0,13.0,64,0.00,,---,0.00,VWS V14.01,2013-05-22 20:25:00,
2013-05-22 15:30:00,60.8,49.4,29.94,SSE,160,2.0,14.0,66,0.00,,---,0.00,VWS V14.01,2013-05-22 20:30:00,
2013-05-22 15:35:00,61.0,49.6,29.95,South,186,3.0,7.0,66,0.00,,---,0.00,VWS V14.01,2013-05-22 20:35:00,
2013-05-22 15:40:00,61.2,49.8,29.95,West,263,7.0,7.0,66,0.00,,---,0.00,VWS V14.01,2013-05-22 20:40:00,
2013-05-22 15:45:00,60.9,49.5,29.95,SSW,198,6.0,11.0,66,0.00,,---,0.00,VWS V14.01,2013-05-22 20:45:00,
2013-05-22 15:50:00,60.8,49.4,29.95,SE,133,2.0,11.0,66,0.00,,---,0.00,VWS V14.01,2013-05-22 20:50:00,
2013-05-22 15:55:00,60.7,49.3,29.95,SSE,149,5.0,11.0,66,0.00,,---,0.00,VWS V14.01,2013-05-22 20:55:00,
2013-05-22 16:00:00,60.7,49.7,29.95,SE,144,5.0,11.0,67,0.00,,---,0.00,VWS V14.01,2013-05-22 21:00:00,
2013-05-22 16:05:00,60.7,49.3,29.95,SE,140,7.0,8.0,66,0.00,,---,0.00,VWS V14.01,2013-05-22 21:05:00,
2013-05-22 16:10:00,60.9,49.5,29.95,SE,146,4.0,10.0,66,0.00,,---,0.00,VWS V14.01,2013-05-22 21:10:00,
2013-05-22 16:15:00,61.2,49.3,29.95,SE,138,8.0,11.0,65,0.00,,---,0.00,VWS V14.01,2013-05-22 21:15:00,
2013-05-22 16:20:00,61.6,50.1,29.95,South,190,4.0,11.0,66,0.00,,---,0.00,VWS V14.01,2013-05-22 21:20:00,
2013-05-22 16:25:00,61.8,49.9,29.95,SSW,195,3.0,11.0,65,0.00,,---,0.00,VWS V14.01,2013-05-22 21:25:00,
2013-05-22 16:30:00,61.8,49.9,29.95,SSW,210,11.0,11.0,65,0.00,,---,0.00,VWS V14.01,2013-05-22 21:30:00,
2013-05-22 16:35:00,61.7,49.8,29.95,SE,139,3.0,9.0,65,0.00,,---,0.00,VWS V14.01,2013-05-22 21:35:00,
2013-05-22 16:40:00,61.7,49.4,29.95,South,191,5.0,11.0,64,0.00,,---,0.00,VWS V14.01,2013-05-22 21:40:00,
2013-05-22 16:45:00,61.6,49.7,29.95,South,189,3.0,11.0,65,0.00,,---,0.00,VWS V14.01,2013-05-22 21:45:00,
2013-05-22 16:50:00,61.8,49.9,29.95,SSE,154,3.0,11.0,65,0.00,,---,0.00,VWS V14.01,2013-05-22 21:50:00,
2013-05-22 16:55:00,61.7,49.4,29.95,SSE,156,3.0,11.0,64,0.00,,---,0.00,VWS V14.01,2013-05-22 21:55:00,
2013-05-22 17:00:00,61.8,49.9,29.95,South,185,6.0,11.0,65,0.00,,---,0.00,VWS V14.01,2013-05-22 22:00:00,
2013-05-22 17:05:00,61.7,49.8,29.95,SSE,149,5.0,7.0,65,0.00,,---,0.00,VWS V14.01,2013-05-22 22:05:00,
2013-05-22 17:10:00,61.7,49.8,29.95,SE,139,6.0,11.0,65,0.00,,---,0.00,VWS V14.01,2013-05-22 22:10:00,
2013-05-22 17:15:00,61.7,50.2,29.95,SSE,154,4.0,11.0,66,0.00,,---,0.00,VWS V14.01,2013-05-22 22:15:00,
2013-05-22 17:20:00,61.9,50.0,29.96,SE,137,7.0,11.0,65,0.00,,---,0.00,VWS V14.01,2013-05-22 22:20:00,
2013-05-22 17:25:00,61.8,50.3,29.96,SE,139,3.0,11.0,66,0.00,,---,0.00,VWS V14.01,2013-05-22 22:25:00,
2013-05-22 17:30:00,61.9,50.4,29.96,SSE,160,4.0,11.0,66,0.00,,---,0.00,VWS V14.01,2013-05-22 22:30:00,
2013-05-22 17:35:00,61.7,49.8,29.96,South,190,3.0,7.0,65,0.00,,---,0.00,VWS V14.01,2013-05-22 22:35:00,
2013-05-22 17:40:00,61.5,50.0,29.96,SSE,160,1.0,10.0,66,0.00,,---,0.00,VWS V14.01,2013-05-22 22:40:00,
2013-05-22 17:45:00,61.6,50.1,29.96,South,171,1.0,10.0,66,0.00,,---,0.00,VWS V14.01,2013-05-22 22:45:00,
2013-05-22 17:50:00,61.6,50.1,29.97,SSE,159,1.0,10.0,66,0.00,,---,0.00,VWS V14.01,2013-05-22 22:50:00,
2013-05-22 17:55:00,61.6,50.1,29.97,SSE,150,8.0,10.0,66,0.00,,---,0.00,VWS V14.01,2013-05-22 22:55:00,
2013-05-22 18:00:00,61.6,50.1,29.96,SSE,164,1.0,10.0,66,0.00,,---,0.00,VWS V14.01,2013-05-22 23:00:00,
2013-05-22 18:05:00,61.6,50.5,29.97,South,183,3.0,5.0,67,0.00,,---,0.00,VWS V14.01,2013-05-22 23:05:00,
2013-05-22 18:10:00,61.5,50.5,29.97,SSE,160,3.0,7.0,67,0.00,,---,0.00,VWS V14.01,2013-05-22 23:10:00,
2013-05-22 18:15:00,61.5,50.8,29.97,South,183,3.0,7.0,68,0.00,,---,0.00,VWS V14.01,2013-05-22 23:15:00,
2013-05-22 18:20:00,61.4,50.4,29.97,SSW,193,6.0,7.0,67,0.00,,---,0.00,VWS V14.01,2013-05-22 23:20:00,
2013-05-22 18:25:00,61.3,50.7,29.97,SSE,165,6.0,7.0,68,0.00,,---,0.00,VWS V14.01,2013-05-22 23:25:00,
2013-05-22 18:30:00,61.2,50.6,29.97,South,183,1.0,7.0,68,0.00,,---,0.00,VWS V14.01,2013-05-22 23:30:00,
2013-05-22 18:35:00,61.1,50.5,29.97,South,187,5.0,8.0,68,0.00,,---,0.00,VWS V14.01,2013-05-22 23:35:00,
2013-05-22 18:40:00,60.9,50.3,29.97,South,180,2.0,8.0,68,0.00,,---,0.00,VWS V14.01,2013-05-22 23:40:00,
2013-05-22 18:45:00,60.8,50.2,29.97,South,173,4.0,12.0,68,0.00,,---,0.00,VWS V14.01,2013-05-22 23:45:00,
2013-05-22 18:50:00,60.7,50.1,29.98,South,173,1.0,12.0,68,0.00,,---,0.00,VWS V14.01,2013-05-22 23:50:00,
2013-05-22 18:55:00,60.7,50.1,29.98,SSE,148,5.0,12.0,68,0.00,,---,0.00,VWS V14.01,2013-05-22 23:55:00,
2013-05-22 18:59:00,60.5,49.9,29.98,SW,227,3.0,12.0,68,0.00,,---,0.00,VWS V14.01,2013-05-22 23:59:00,
2013-05-22 19:04:00,60.5,49.9,29.98,South,177,2.0,4.0,68,0.00,,---,0.00,VWS V14.01,2013-05-23 00:04:00,
2013-05-22 19:09:00,60.5,49.9,29.98,South,184,5.0,10.0,68,0.00,,---,0.00,VWS V14.01,2013-05-23 00:09:00,
2013-05-22 19:14:00,60.4,49.8,29.99,SSW,213,3.0,10.0,68,0.00,,---,0.00,VWS V14.01,2013-05-23 00:14:00,
2013-05-22 19:19:00,60.4,49.8,29.99,South,184,1.0,10.0,68,0.00,,---,0.00,VWS V14.01,2013-05-23 00:19:00,
2013-05-22 19:24:00,60.3,49.7,29.99,SSW,197,2.0,10.0,68,0.00,,---,0.00,VWS V14.01,2013-05-23 00:24:00,
2013-05-22 19:29:00,60.2,49.6,29.99,South,182,4.0,10.0,68,0.00,,---,0.00,VWS V14.01,2013-05-23 00:29:00,
2013-05-22 19:34:00,60.1,49.9,29.99,SSE,165,5.0,10.0,69,0.00,,---,0.00,VWS V14.01,2013-05-23 00:34:00,
2013-05-22 19:39:00,60.0,49.8,29.99,SSW,193,2.0,10.0,69,0.00,,---,0.00,VWS V14.01,2013-05-23 00:39:00,
2013-05-22 19:44:00,59.9,50.1,30.00,South,173,3.0,10.0,70,0.00,,---,0.00,VWS V14.01,2013-05-23 00:44:00,
2013-05-22 19:49:00,59.8,50.0,30.00,South,190,5.0,11.0,70,0.00,,---,0.00,VWS V14.01,2013-05-23 00:49:00,
2013-05-22 19:54:00,59.6,50.2,30.00,SSW,197,2.0,11.0,71,0.00,,---,0.00,VWS V14.01,2013-05-23 00:54:00,
2013-05-22 19:59:00,59.5,50.1,30.00,South,177,2.0,11.0,71,0.00,,---,0.00,VWS V14.01,2013-05-23 00:59:00,
2013-05-22 20:04:00,59.3,49.9,30.00,SSE,166,1.0,2.0,71,0.00,,---,0.00,VWS V14.01,2013-05-23 01:04:00,
2013-05-22 20:09:00,59.1,50.1,30.00,SSW,194,3.0,10.0,72,0.00,,---,0.00,VWS V14.01,2013-05-23 01:09:00,
2013-05-22 20:14:00,58.9,49.9,30.00,South,175,2.0,12.0,72,0.00,,---,0.00,VWS V14.01,2013-05-23 01:14:00,
2013-05-22 20:19:00,58.6,50.3,30.01,SW,229,5.0,15.0,74,0.00,,---,0.00,VWS V14.01,2013-05-23 01:19:00,
2013-05-22 20:24:00,58.3,50.1,30.01,WSW,244,5.0,15.0,74,0.00,,---,0.00,VWS V14.01,2013-05-23 01:24:00,
2013-05-22 20:29:00,58.0,50.1,30.01,SW,229,5.0,15.0,75,0.00,,---,0.00,VWS V14.01,2013-05-23 01:29:00,
2013-05-22 20:34:00,57.9,50.4,30.01,SW,218,3.0,6.0,76,0.00,,---,0.00,VWS V14.01,2013-05-23 01:34:00,
2013-05-22 20:39:00,57.7,49.8,30.02,SW,220,3.0,12.0,75,0.00,,---,0.00,VWS V14.01,2013-05-23 01:39:00,
2013-05-22 20:44:00,57.5,49.7,30.02,South,189,2.0,14.0,75,0.00,,---,0.00,VWS V14.01,2013-05-23 01:44:00,
2013-05-22 20:49:00,57.4,49.9,30.02,South,169,1.0,14.0,76,0.00,,---,0.00,VWS V14.01,2013-05-23 01:49:00,
2013-05-22 20:54:00,57.4,49.9,30.03,WSW,249,3.0,14.0,76,0.00,,---,0.00,VWS V14.01,2013-05-23 01:54:00,
2013-05-22 20:59:00,57.1,49.6,30.03,South,170,3.0,14.0,76,0.00,,---,0.00,VWS V14.01,2013-05-23 01:59:00,
2013-05-22 21:04:00,56.7,49.6,30.03,SSW,207,11.0,15.0,77,0.00,,---,0.00,VWS V14.01,2013-05-23 02:04:00,
2013-05-22 21:09:00,55.9,49.2,30.03,WSW,239,6.0,15.0,78,0.00,,---,0.00,VWS V14.01,2013-05-23 02:09:00,
2013-05-22 21:14:00,55.5,49.1,30.04,SW,225,4.0,15.0,79,0.00,,---,0.00,VWS V14.01,2013-05-23 02:14:00,
2013-05-22 21:19:00,55.1,49.0,30.04,SW,216,5.0,15.0,80,0.00,,---,0.00,VWS V14.01,2013-05-23 02:19:00,
2013-05-22 21:24:00,54.9,49.2,30.05,South,187,2.0,15.0,81,0.00,,---,0.00,VWS V14.01,2013-05-23 02:24:00,
2013-05-22 21:29:00,54.7,49.0,30.05,South,175,3.0,15.0,81,0.00,,---,0.00,VWS V14.01,2013-05-23 02:29:00,
2013-05-22 21:34:00,54.5,48.8,30.05,SSE,165,4.0,6.0,81,0.00,,---,0.00,VWS V14.01,2013-05-23 02:34:00,
2013-05-22 21:39:00,54.4,48.7,30.06,South,182,1.0,11.0,81,0.00,,---,0.00,VWS V14.01,2013-05-23 02:39:00,
2013-05-22 21:44:00,54.3,48.6,30.06,South,176,2.0,11.0,81,0.00,,---,0.00,VWS V14.01,2013-05-23 02:44:00,
2013-05-22 21:49:00,54.2,48.5,30.06,West,270,4.0,11.0,81,0.00,,---,0.00,VWS V14.01,2013-05-23 02:49:00,
2013-05-22 21:54:00,54.2,48.5,30.07,SSW,202,2.0,11.0,81,0.00,,---,0.00,VWS V14.01,2013-05-23 02:54:00,
2013-05-22 21:59:00,54.2,48.5,30.07,South,185,5.0,11.0,81,0.00,,---,0.00,VWS V14.01,2013-05-23 02:59:00,
2013-05-22 22:04:00,54.1,48.4,30.07,South,175,4.0,6.0,81,0.00,,---,0.00,VWS V14.01,2013-05-23 03:04:00,
2013-05-22 22:09:00,54.1,48.4,30.07,SSE,162,3.0,6.0,81,0.00,,---,0.00,VWS V14.01,2013-05-23 03:09:00,
2013-05-22 22:14:00,54.0,48.6,30.08,SSE,168,1.0,7.0,82,0.00,,---,0.00,VWS V14.01,2013-05-23 03:14:00,
2013-05-22 22:19:00,53.9,48.2,30.08,SSE,168,6.0,9.0,81,0.00,,---,0.00,VWS V14.01,2013-05-23 03:19:00,
2013-05-22 22:24:00,53.7,48.0,30.08,SSE,164,2.0,10.0,81,0.00,,---,0.00,VWS V14.01,2013-05-23 03:24:00,
2013-05-22 22:29:00,53.7,47.7,30.09,SW,227,6.0,10.0,80,0.00,,---,0.00,VWS V14.01,2013-05-23 03:29:00,
2013-05-22 22:34:00,53.5,47.8,30.09,SW,234,9.0,9.0,81,0.00,,---,0.00,VWS V14.01,2013-05-23 03:34:00,
2013-05-22 22:39:00,53.5,47.8,30.09,SSE,165,5.0,9.0,81,0.00,,---,0.00,VWS V14.01,2013-05-23 03:39:00,
2013-05-22 22:44:00,53.4,47.7,30.09,South,177,2.0,9.0,81,0.00,,---,0.00,VWS V14.01,2013-05-23 03:44:00,
2013-05-22 22:49:00,53.4,47.7,30.09,South,179,1.0,9.0,81,0.00,,---,0.00,VWS V14.01,2013-05-23 03:49:00,
2013-05-22 22:54:00,53.3,47.6,30.10,South,170,1.0,9.0,81,0.00,,---,0.00,VWS V14.01,2013-05-23 03:54:00,
2013-05-22 22:59:00,53.2,47.9,30.10,South,177,4.0,9.0,82,0.00,,---,0.00,VWS V14.01,2013-05-23 03:59:00,
2013-05-22 23:01:00,53.2,47.9,30.10,South,183,2.0,9.0,82,0.00,,---,0.00,VWS V14.01,2013-05-23 04:01:00,
2013-05-22 23:06:00,53.1,47.8,30.10,SW,215,2.0,8.0,82,0.00,,---,0.00,VWS V14.01,2013-05-23 04:06:00,
2013-05-22 23:11:00,53.0,47.7,30.10,South,175,1.0,8.0,82,0.00,,---,0.00,VWS V14.01,2013-05-23 04:11:00,
2013-05-22 23:16:00,53.0,47.7,30.10,South,175,4.0,8.0,82,0.00,,---,0.00,VWS V14.01,2013-05-23 04:16:00,
2013-05-22 23:21:00,53.0,47.7,30.10,WSW,245,2.0,8.0,82,0.00,,---,0.00,VWS V14.01,2013-05-23 04:21:00,
2013-05-22 23:26:00,52.9,47.9,30.10,SSE,156,3.0,10.0,83,0.00,,---,0.00,VWS V14.01,2013-05-23 04:26:00,
2013-05-22 23:31:00,52.9,47.9,30.10,South,173,3.0,10.0,83,0.00,,---,0.00,VWS V14.01,2013-05-23 04:31:00,
2013-05-22 23:36:00,52.8,47.8,30.10,SSE,154,3.0,5.0,83,0.00,,---,0.00,VWS V14.01,2013-05-23 04:36:00,
2013-05-22 23:41:00,52.8,47.8,30.10,SSW,202,3.0,5.0,83,0.00,,---,0.00,VWS V14.01,2013-05-23 04:41:00,
2013-05-22 23:46:00,52.5,47.5,30.10,South,170,3.0,6.0,83,0.00,,---,0.00,VWS V14.01,2013-05-23 04:46:00,
2013-05-22 23:51:00,52.3,47.6,30.10,South,183,2.0,9.0,84,0.00,,---,0.00,VWS V14.01,2013-05-23 04:51:00,
2013-05-22 23:56:00,52.1,47.4,30.11,South,169,2.0,9.0,84,0.00,,---,0.00,VWS V14.01,2013-05-23 04:56:00,